SCP
0 0 0 0 0 0 0 0 0 0 0 0 0 0 0 0 0 0 0 0 0 0 0 0 0 0 0 0 0 0 0 0 0 0 0 0 0 0 0 0 0 0 0
0 0 0 0 0 0 0 0 0 0 0 0 0 0 0 0 0 0 0 0 0 0 0 0 0 0 0 0 0 0 0 0 0 0 0 0 0 0 0 0 0 0 0
0 0 0 0 0 0 0 0 0 0 0 0 0 0 0 0 0 0 0 0 0 0 0 0 0 0 0 0 0 0 0 0 0 0 0 0 0 0 0 0 0 0 0
0 0 0 0 0 0 0 0 0 0 0 0 0 0 0 0 0 0 0 0 0 0 0 0 0 0 0 0 0 0 0 0 0 0 0 0 0 0 0 0 0 0 0
0 0 0 0 0 0 0 0 0 0 0 0 0 0 0 0 0 0 0 0 0 0 0 0 0 0 0 0 0 0 0 0 0 0 0 0 0 0 0 0 0 0 0
0 0 0 0 0 0 0 0 0 0 0 0 0 0 0 0 0 0 0 0 0 0 0 0 0 0 0 0 0 0 0 0 0 0 0 0 0 0 0 0 0 0 0
0 0 0 0 0 0 0 0 0 0 0 0 0 0 0 0 0 0 0 0 0 0 0 0 0 0 0 0 0 0 0 0 0 0 0 0 0 0 0 0 0 0 0
0 0 0 0 0 0 0 0 0 0 0 0 0 0 0 0 0 0 0 0 0 0 0 0 0 0 0 0 0 0 0 0 0 0 0 0 0 0 0 0 0 0 0
0 0 0 0 0 0 0 0 0 0 0 0 0 0 0 0 0 0 0 0 0 0 0 0 0 0 0 0 0 0 0 0 0 0 0 0 0 0 0 0 0 0 0
0 0 0 0 0 0 0 0 0 0 0 0 0 0 0 0 0 0 0 0 0 0 0 0 0 0 0 0 0 0 0 0 0 0 0 0 0 0 0 0 0 0 -0
0 0 0 0 0 0 0 0 0 0 0 0 0 0 0 0 0 0 0 0 0 0 0 0 0 0 0 0 0 0 0 0 0 0 0 0 0 0 0 0 0 0 0
0 0 0 0 0 0 0 0 0 0 0 0 0 0 0 0 0 0 0 0 0 0 0 0 0 0 0 0 0 0 0 0 0 0 0 0 0 0 0 0 0 0 0
0 0 0 0 0 0 0 0 0 0 0 0 0 0 0 0 0 0 0 0 0 0 0 0 0 0 0 0 0 0 0 0 0 0 0 0 0 0 0 0 0 0 -0
0 0 0 0 0 0 0 0 0 0 0 0 0 0 0 0 0 0 0 0 0 0 0 0 0 0 0 0 0 0 0 0 0 0 0 0 0 0 0 0 -0 -0 -0
0 0 0 0 0 0 0 0 0 0 0 0 0 0 0 0 0 0 0 0 0 0 0 0 0 0 0 0 0 0 0 0 0 0 0 0 0 0 0 0 0 -0 -0
0 0 0 0 0 0 0 0 0 0 0 0 -0 0 0 0 0 0 0 0 0 0 0 0 0 0 0 0 0 0 0 0 0 0 0 0 0 0 0 -0 -0 -0 -0
0 0 0 0 0 0 0 0 0 0 0 0 0 0 0 0 0 0 0 0 0 0 0 0 0 0 0 0 0 0 0 0 0 0 0 0 0 -0 -0 -0 -0 0 -0
0 0 0 0 0 0 0 0 0 0 0 0 0 0 0 0 0 0 0 0 0 0 0 0 0 0 0 0 0 0 0 0 0 0 0 0 0 0 -0 -0 0 0 0
0 0 0 0 0 0 0 0 0 0 0 0 0 0 0 0 0 0 0 0 0 0 0 0 0 0 0 0 0 0 0 0 0 0 0 0 0 0 0 0 0 0 0
0 0 0 0 0 0 0 0 0 0 0 0 0 0 0 0 0 0 0 0 0 0 0 0 0 0 0 0 0 0 0 0 0 0 0 0 0 0 0 0 0 0 0
0 0 0 0 0 0 0 0 0 0 0 0 0 0 0 0 0 0 0 0 0 0 0 0 0 0 0 0 0 0 0 0 0 0 0 0 0 0 0 0 0 0 0
0 0 0 0 0 0 0 0 0 0 0 0 0 0 0 0 0 0 0 0 0 0 0 0 0 0 0 0 0 0 0 0 0 0 0 0 0 0 0 0 0 0 0
0 0 0 0 0 0 -0 0 0 0 0 0 0 0 0 0 0 0 0 0 0 0 0 0 0 0 0 0 0 0 0 0 0 0 0 0 0 0 0 0 0 0 0
0 0 0 0 0 0 0 0 0 0 0 0 0 0 0 0 0 0 0 0 0 0 0 0 0 0 0 0 0 0 0 0 0 0 0 0 0 0 0 0 0 0 0
0 0 0 0 0 0 0 0 0 0 0 0 0 0 0 0 0 0 0 0 0 0 0 0 0 0 0 0 0 0 0 0 0 0 0 0 0 0 0 0 0 0 0
0 0 0 0 0 0 0 0 0 0 0 0 0 0 0 0 0 0 0 0 0 0 0 0 0 0 0 0 0 0 0 0 0 0 0 0 0 0 0 0 0 0 0
Wind_Speed_500mb
57 56 53 48 45 45 37 26 25 22 23 20 16 11 10 6 11 10 10 11 7 6 8 12 16 21 26 30 33 39 42 40 48 46 46 39 45 46 40 31 34 31 36
48 51 51 51 47 50 37 29 28 21 22 21 18 15 12 10 3 5 14 16 13 15 13 19 23 25 33 40 44 46 45 40 43 49 46 44 48 51 44 41 36 37 38
47 55 57 57 49 49 38 33 29 22 20 20 20 21 17 15 10 3 10 17 18 17 18 19 25 34 41 45 43 40 39 34 39 47 47 53 55 57 41 34 35 38 39
45 54 57 56 56 51 41 36 31 25 24 21 23 21 20 20 16 8 5 11 15 15 20 27 34 38 43 41 41 43 36 36 36 43 51 58 57 47 30 31 38 40 33
48 47 48 49 51 50 46 38 31 28 23 22 19 18 18 16 12 10 9 11 17 25 29 32 33 40 45 48 47 40 38 38 49 56 54 53 36 23 32 37 42 35 30
46 44 45 45 49 52 48 44 33 32 29 28 23 21 20 12 13 10 8 12 17 22 26 28 36 42 42 44 33 34 37 41 47 45 41 29 24 31 34 41 33 35 38
42 45 46 44 47 49 48 43 35 37 35 29 22 26 31 24 21 19 20 23 22 26 31 37 36 37 41 26 22 27 31 35 33 30 33 31 34 33 33 31 28 32 31
51 47 50 49 48 50 51 47 39 37 36 24 22 26 24 21 22 21 24 29 29 33 38 35 34 38 24 17 24 25 29 29 31 30 28 25 26 26 27 29 24 30 31
51 51 50 51 53 52 54 52 44 43 36 21 24 27 29 27 32 32 31 28 31 35 35 28 32 29 15 20 24 24 29 38 29 19 25 28 25 27 33 22 23 28 39
45 48 53 60 58 58 59 56 49 49 32 21 24 26 23 29 30 28 28 27 31 33 27 30 32 23 21 25 26 27 29 42 40 35 26 21 19 23 25 26 25 26 31
40 44 48 58 66 65 58 56 51 47 28 26 28 27 26 22 22 23 26 30 38 29 28 31 31 26 26 30 26 26 31 45 44 37 36 31 27 27 16 20 26 27 29
42 46 48 53 62 72 75 50 57 42 33 27 27 28 26 29 28 26 28 34 32 26 30 35 33 25 27 27 23 25 32 45 39 33 31 29 21 17 16 18 18 21 26
37 43 46 55 56 71 68 55 53 37 34 31 34 31 34 35 30 31 30 30 24 27 35 30 10 13 18 15 19 24 34 37 31 28 27 24 25 26 26 27 27 28 27
34 39 43 53 56 56 57 38 44 38 36 35 34 35 35 35 31 24 25 24 26 28 13 8 14 13 11 13 20 24 31 30 31 25 25 24 28 29 31 35 37 38 35
37 34 41 44 52 46 38 41 45 39 39 34 30 34 31 26 19 20 20 25 14 8 10 14 15 15 15 21 25 23 25 24 27 22 23 29 31 31 32 37 44 42 35
40 34 33 45 50 52 53 43 41 37 34 30 28 29 31 22 16 14 15 10 8 13 20 24 23 22 20 20 27 24 22 22 24 25 28 29 31 36 46 51 48 41 35
40 35 29 49 47 47 47 37 44 39 29 26 27 26 16 16 13 8 10 12 14 18 17 16 18 22 22 23 27 24 26 25 32 37 38 35 40 51 59 55 46 42 41
37 35 32 50 37 48 52 46 46 40 42 35 30 24 19 16 12 12 11 14 19 16 16 17 20 20 25 21 19 23 28 33 32 30 34 47 54 57 56 50 46 43 40
39 41 31 45 57 54 51 46 36 42 34 30 33 29 23 15 13 13 20 23 24 21 20 19 19 22 21 16 22 31 34 30 32 41 47 50 50 55 54 48 44 40 37
44 47 36 39 55 53 48 42 47 37 33 35 31 28 21 13 14 9 11 17 16 15 16 16 16 21 25 29 32 33 31 37 44 47 47 51 53 53 50 44 37 33 25
41 43 31 48 49 39 54 47 43 36 35 34 33 27 18 13 13 18 15 10 14 16 13 12 18 25 27 30 32 36 42 46 47 51 55 53 50 50 37 29 22 16 18
44 38 39 65 59 69 59 48 43 37 37 39 34 24 18 15 20 15 8 14 15 11 11 17 23 25 28 31 38 45 49 51 54 57 55 51 47 41 28 25 23 24 22
47 43 46 71 81 71 66 51 45 41 42 36 28 23 19 19 16 9 11 15 13 14 19 23 25 28 31 37 43 49 54 57 58 58 57 52 46 36 27 27 25 21 18
53 48 70 79 77 69 58 52 43 42 41 36 31 23 20 18 11 10 13 14 15 17 20 23 26 29 34 40 45 48 52 57 57 55 52 48 39 27 21 19 20 15 20
45 76 86 80 69 59 48 44 49 46 46 38 30 23 18 10 9 10 12 11 15 18 19 23 27 31 37 42 45 49 54 55 50 46 42 35 24 17 15 18 17 19 19
83 81 73 59 53 50 50 52 50 49 43 32 23 16 10 5 6 8 7 10 14 16 19 23 29 35 39 41 45 50 54 49 45 47 43 23 13 14 18 17 12 13 16
Wind_Direction_500mb
219 220 223 223 224 219 215 222 225 225 226 224 236 233 261 233 216 215 189 207 211 273 285 303 318 316 316 314 314 307 309 302 309 305 309 313 317 327 316 307 308 307 299
231 227 228 226 223 218 219 225 226 228 225 233 241 247 247 225 250 238 223 211 253 264 279 300 308 309 313 314 310 303 301 294 298 301 306 310 310 321 312 307 307 308 304
236 228 224 224 222 221 224 224 225 233 233 238 244 250 235 241 235 298 240 220 244 273 290 300 314 314 313 310 308 303 317 289 289 299 307 306 308 315 310 301 309 314 311
234 230 226 227 225 225 221 223 228 238 233 246 248 240 238 248 236 242 252 231 253 268 289 302 311 311 308 305 304 307 303 293 298 301 300 304 304 314 306 310 314 318 316
231 232 234 234 226 223 218 217 224 227 234 234 221 221 233 238 243 251 255 243 271 287 292 305 307 309 308 309 303 301 301 298 305 307 297 308 314 313 312 316 318 321 332
241 242 237 234 230 228 223 214 214 216 216 209 210 212 224 254 263 269 273 290 292 290 294 303 308 314 317 317 316 316 323 307 311 314 315 315 308 310 310 310 316 323 330
250 243 240 238 232 231 228 227 217 215 213 220 213 231 246 258 268 267 270 274 283 292 297 303 315 321 331 314 325 325 323 322 323 324 322 311 306 312 304 309 319 322 319
250 240 237 234 235 231 228 228 227 217 217 224 214 237 248 254 261 256 263 265 278 283 293 306 310 325 332 325 330 334 334 331 315 309 313 320 312 309 303 306 323 312 313
246 242 247 238 235 235 227 226 227 221 221 232 219 242 250 252 259 262 266 268 269 286 295 296 306 329 314 322 324 324 338 343 334 324 324 319 303 300 313 307 316 307 311
254 252 251 246 239 243 228 224 225 221 230 208 226 242 246 257 267 258 271 263 277 288 286 293 305 310 285 308 318 323 326 332 329 327 325 318 307 303 302 304 308 314 317
272 264 262 261 250 254 240 227 221 221 207 206 225 244 249 240 260 262 267 284 293 284 281 294 308 304 276 301 311 314 323 328 324 320 321 318 311 311 294 288 295 305 307
294 274 271 274 271 262 243 234 216 219 199 213 222 237 243 249 260 265 269 282 280 277 290 300 305 295 291 292 296 309 320 327 322 315 324 335 348 334 319 317 309 302 303
299 294 291 293 277 259 243 228 222 200 189 220 215 238 244 249 255 263 275 277 278 289 296 300 302 302 303 288 299 308 318 333 334 326 323 334 333 336 332 319 310 303 290
310 298 297 290 260 248 230 219 215 191 204 209 215 236 242 245 256 268 276 277 283 293 288 295 295 305 299 309 302 307 315 343 351 346 343 331 334 333 334 335 334 327 307
328 312 315 285 253 231 207 206 206 207 208 209 220 231 234 244 251 269 269 279 278 252 279 280 300 305 307 294 288 304 318 340 351 347 346 336 330 329 329 326 325 326 319
318 312 309 286 242 232 221 212 198 209 194 208 226 228 246 240 243 254 266 223 223 269 281 276 275 289 294 289 287 291 311 329 335 323 317 318 320 317 316 320 320 319 316
315 310 293 253 252 226 218 189 199 174 183 203 207 210 209 216 206 196 189 216 254 276 273 293 286 295 310 290 285 284 303 308 305 307 308 313 315 314 315 317 316 313 309
310 305 291 267 264 233 202 190 182 181 181 179 188 196 190 184 180 181 201 245 274 262 266 286 292 308 320 309 281 293 312 316 308 311 312 314 315 315 315 313 311 308 307
294 309 276 257 248 230 193 176 158 187 191 196 194 184 184 190 217 241 258 262 274 272 286 294 310 325 327 326 325 328 331 329 322 319 319 320 321 321 318 312 306 302 304
280 301 285 267 235 197 180 164 177 186 192 195 190 187 188 227 262 270 260 267 269 290 298 305 322 330 327 328 333 335 330 324 322 322 322 324 325 325 322 316 309 304 302
278 288 268 227 190 177 152 174 188 193 199 193 184 189 210 233 261 242 245 262 315 321 312 320 335 330 324 328 331 330 327 325 325 324 324 326 327 330 331 334 336 330 316
268 275 247 226 189 151 158 180 186 193 188 184 190 198 198 214 224 226 266 319 328 316 306 326 330 326 324 326 328 328 327 327 326 324 325 327 328 329 322 324 323 320 318
258 266 236 202 163 154 164 179 188 191 184 190 196 198 194 205 213 243 312 331 321 306 319 325 327 326 327 328 329 330 329 329 328 326 324 324 325 323 312 315 321 325 338
266 246 205 172 157 165 178 184 191 190 190 191 190 187 193 206 230 301 321 321 313 323 328 329 330 331 331 332 333 333 332 330 328 326 325 325 326 322 315 315 328 336 327
204 175 159 150 164 184 182 189 181 186 184 183 183 194 200 224 280 296 314 319 331 338 339 337 338 337 337 337 336 337 337 336 337 339 339 340 345 352 346 336 339 352 343
136 135 145 164 173 181 189 176 182 179 177 180 185 192 216 248 277 310 326 335 342 349 353 353 348 345 342 340 339 341 342 344 346 344 343 347 18 7 354 3 31 30 61
Wind_Speed_850mb
57 56 53 48 45 45 37 26 25 22 23 20 16 11 10 6 11 10 10 11 7 6 8 12 16 21 26 30 33 39 42 40 48 46 46 39 45 46 40 31 34 31 36
48 51 51 51 47 50 37 29 28 21 22 21 18 15 12 10 3 5 14 16 13 15 13 19 23 25 33 40 44 46 45 40 43 49 46 44 48 51 44 41 36 37 38
47 55 57 57 49 49 38 33 29 22 20 20 20 21 17 15 10 3 10 17 18 17 18 19 25 34 41 45 43 40 39 34 39 47 47 53 55 57 41 34 35 38 39
45 54 57 56 56 51 41 36 31 25 24 21 23 21 20 20 16 8 5 11 15 15 20 27 34 38 43 41 41 43 36 36 36 43 51 58 57 47 30 31 38 40 33
48 47 48 49 51 50 46 38 31 28 23 22 19 18 18 16 12 10 9 11 17 25 29 32 33 40 45 48 47 40 38 38 49 56 54 53 36 23 32 37 42 35 30
46 44 45 45 49 52 48 44 33 32 29 28 23 21 20 12 13 10 8 12 17 22 26 28 36 42 42 44 33 34 37 41 47 45 41 29 24 31 34 41 33 35 38
42 45 46 44 47 49 48 43 35 37 35 29 22 26 31 24 21 19 20 23 22 26 31 37 36 37 41 26 22 27 31 35 33 30 33 31 34 33 33 31 28 32 31
51 47 50 49 48 50 51 47 39 37 36 24 22 26 24 21 22 21 24 29 29 33 38 35 34 38 24 17 24 25 29 29 31 30 28 25 26 26 27 29 24 30 31
51 51 50 51 53 52 54 52 44 43 36 21 24 27 29 27 32 32 31 28 31 35 35 28 32 29 15 20 24 24 29 38 29 19 25 28 25 27 33 22 23 28 39
45 48 53 60 58 58 59 56 49 49 32 21 24 26 23 29 30 28 28 27 31 33 27 30 32 23 21 25 26 27 29 42 40 35 26 21 19 23 25 26 25 26 31
40 44 48 58 66 65 58 56 51 47 28 26 28 27 26 22 22 23 26 30 38 29 28 31 31 26 26 30 26 26 31 45 44 37 36 31 27 27 16 20 26 27 29
42 46 48 53 62 72 75 50 57 42 33 27 27 28 26 29 28 26 28 34 32 26 30 35 33 25 27 27 23 25 32 45 39 33 31 29 21 17 16 18 18 21 26
37 43 46 55 56 71 68 55 53 37 34 31 34 31 34 35 30 31 30 30 24 27 35 30 10 13 18 15 19 24 34 37 31 28 27 24 25 26 26 27 27 28 27
34 39 43 53 56 56 57 38 44 38 36 35 34 35 35 35 31 24 25 24 26 28 13 8 14 13 11 13 20 24 31 30 31 25 25 24 28 29 31 35 37 38 35
37 34 41 44 52 46 38 41 45 39 39 34 30 34 31 26 19 20 20 25 14 8 10 14 15 15 15 21 25 23 25 24 27 22 23 29 31 31 32 37 44 42 35
40 34 33 45 50 52 53 43 41 37 34 30 28 29 31 22 16 14 15 10 8 13 20 24 23 22 20 20 27 24 22 22 24 25 28 29 31 36 46 51 48 41 35
40 35 29 49 47 47 47 37 44 39 29 26 27 26 16 16 13 8 10 12 14 18 17 16 18 22 22 23 27 24 26 25 32 37 38 35 40 51 59 55 46 42 41
37 35 32 50 37 48 52 46 46 40 42 35 30 24 19 16 12 12 11 14 19 16 16 17 20 20 25 21 19 23 28 33 32 30 34 47 54 57 56 50 46 43 40
39 41 31 45 57 54 51 46 36 42 34 30 33 29 23 15 13 13 20 23 24 21 20 19 19 22 21 16 22 31 34 30 32 41 47 50 50 55 54 48 44 40 37
44 47 36 39 55 53 48 42 47 37 33 35 31 28 21 13 14 9 11 17 16 15 16 16 16 21 25 29 32 33 31 37 44 47 47 51 53 53 50 44 37 33 25
41 43 31 48 49 39 54 47 43 36 35 34 33 27 18 13 13 18 15 10 14 16 13 12 18 25 27 30 32 36 42 46 47 51 55 53 50 50 37 29 22 16 18
44 38 39 65 59 69 59 48 43 37 37 39 34 24 18 15 20 15 8 14 15 11 11 17 23 25 28 31 38 45 49 51 54 57 55 51 47 41 28 25 23 24 22
47 43 46 71 81 71 66 51 45 41 42 36 28 23 19 19 16 9 11 15 13 14 19 23 25 28 31 37 43 49 54 57 58 58 57 52 46 36 27 27 25 21 18
53 48 70 79 77 69 58 52 43 42 41 36 31 23 20 18 11 10 13 14 15 17 20 23 26 29 34 40 45 48 52 57 57 55 52 48 39 27 21 19 20 15 20
45 76 86 80 69 59 48 44 49 46 46 38 30 23 18 10 9 10 12 11 15 18 19 23 27 31 37 42 45 49 54 55 50 46 42 35 24 17 15 18 17 19 19
83 81 73 59 53 50 50 52 50 49 43 32 23 16 10 5 6 8 7 10 14 16 19 23 29 35 39 41 45 50 54 49 45 47 43 23 13 14 18 17 12 13 16
Wind_Direction_850mb
219 220 223 223 224 219 215 222 225 225 226 224 236 233 261 233 216 215 189 207 211 273 285 303 318 316 316 314 314 307 309 302 309 305 309 313 317 327 316 307 308 307 299
231 227 228 226 223 218 219 225 226 228 225 233 241 247 247 225 250 238 223 211 253 264 279 300 308 309 313 314 310 303 301 294 298 301 306 310 310 321 312 307 307 308 304
236 228 224 224 222 221 224 224 225 233 233 238 244 250 235 241 235 298 240 220 244 273 290 300 314 314 313 310 308 303 317 289 289 299 307 306 308 315 310 301 309 314 311
234 230 226 227 225 225 221 223 228 238 233 246 248 240 238 248 236 242 252 231 253 268 289 302 311 311 308 305 304 307 303 293 298 301 300 304 304 314 306 310 314 318 316
231 232 234 234 226 223 218 217 224 227 234 234 221 221 233 238 243 251 255 243 271 287 292 305 307 309 308 309 303 301 301 298 305 307 297 308 314 313 312 316 318 321 332
241 242 237 234 230 228 223 214 214 216 216 209 210 212 224 254 263 269 273 290 292 290 294 303 308 314 317 317 316 316 323 307 311 314 315 315 308 310 310 310 316 323 330
250 243 240 238 232 231 228 227 217 215 213 220 213 231 246 258 268 267 270 274 283 292 297 303 315 321 331 314 325 325 323 322 323 324 322 311 306 312 304 309 319 322 319
250 240 237 234 235 231 228 228 227 217 217 224 214 237 248 254 261 256 263 265 278 283 293 306 310 325 332 325 330 334 334 331 315 309 313 320 312 309 303 306 323 312 313
246 242 247 238 235 235 227 226 227 221 221 232 219 242 250 252 259 262 266 268 269 286 295 296 306 329 314 322 324 324 338 343 334 324 324 319 303 300 313 307 316 307 311
254 252 251 246 239 243 228 224 225 221 230 208 226 242 246 257 267 258 271 263 277 288 286 293 305 310 285 308 318 323 326 332 329 327 325 318 307 303 302 304 308 314 317
272 264 262 261 250 254 240 227 221 221 207 206 225 244 249 240 260 262 267 284 293 284 281 294 308 304 276 301 311 314 323 328 324 320 321 318 311 311 294 288 295 305 307
294 274 271 274 271 262 243 234 216 219 199 213 222 237 243 249 260 265 269 282 280 277 290 300 305 295 291 292 296 309 320 327 322 315 324 335 348 334 319 317 309 302 303
299 294 291 293 277 259 243 228 222 200 189 220 215 238 244 249 255 263 275 277 278 289 296 300 302 302 303 288 299 308 318 333 334 326 323 334 333 336 332 319 310 303 290
310 298 297 290 260 248 230 219 215 191 204 209 215 236 242 245 256 268 276 277 283 293 288 295 295 305 299 309 302 307 315 343 351 346 343 331 334 333 334 335 334 327 307
328 312 315 285 253 231 207 206 206 207 208 209 220 231 234 244 251 269 269 279 278 252 279 280 300 305 307 294 288 304 318 340 351 347 346 336 330 329 329 326 325 326 319
318 312 309 286 242 232 221 212 198 209 194 208 226 228 246 240 243 254 266 223 223 269 281 276 275 289 294 289 287 291 311 329 335 323 317 318 320 317 316 320 320 319 316
315 310 293 253 252 226 218 189 199 174 183 203 207 210 209 216 206 196 189 216 254 276 273 293 286 295 310 290 285 284 303 308 305 307 308 313 315 314 315 317 316 313 309
310 305 291 267 264 233 202 190 182 181 181 179 188 196 190 184 180 181 201 245 274 262 266 286 292 308 320 309 281 293 312 316 308 311 312 314 315 315 315 313 311 308 307
294 309 276 257 248 230 193 176 158 187 191 196 194 184 184 190 217 241 258 262 274 272 286 294 310 325 327 326 325 328 331 329 322 319 319 320 321 321 318 312 306 302 304
280 301 285 267 235 197 180 164 177 186 192 195 190 187 188 227 262 270 260 267 269 290 298 305 322 330 327 328 333 335 330 324 322 322 322 324 325 325 322 316 309 304 302
278 288 268 227 190 177 152 174 188 193 199 193 184 189 210 233 261 242 245 262 315 321 312 320 335 330 324 328 331 330 327 325 325 324 324 326 327 330 331 334 336 330 316
268 275 247 226 189 151 158 180 186 193 188 184 190 198 198 214 224 226 266 319 328 316 306 326 330 326 324 326 328 328 327 327 326 324 325 327 328 329 322 324 323 320 318
258 266 236 202 163 154 164 179 188 191 184 190 196 198 194 205 213 243 312 331 321 306 319 325 327 326 327 328 329 330 329 329 328 326 324 324 325 323 312 315 321 325 338
266 246 205 172 157 165 178 184 191 190 190 191 190 187 193 206 230 301 321 321 313 323 328 329 330 331 331 332 333 333 332 330 328 326 325 325 326 322 315 315 328 336 327
204 175 159 150 164 184 182 189 181 186 184 183 183 194 200 224 280 296 314 319 331 338 339 337 338 337 337 337 336 337 337 336 337 339 339 340 345 352 346 336 339 352 343
136 135 145 164 173 181 189 176 182 179 177 180 185 192 216 248 277 310 326 335 342 349 353 353 348 345 342 340 339 341 342 344 346 344 343 347 18 7 354 3 31 30 61